Content
SEND FEEDBACK

Daily
Averages
Monthly
Summary
United States of America

SAULT STE. MARIE, MICHIGAN


Home > North America > United States > Michigan
Elevation: 699 feet     Latitude: 46 28N     Longitude: 084 22W

WEATHER
 
SELECT A DAY
Number of Records: 215,791;   Date Range: 1/1/95 - 9/14/14
 
SHARE

PRINT THIS DATA

[ ← Previous Day ]
WEATHER ALMANAC - MARCH 14, 2013
[ Next Day → ]
[ °C ]   °F
Weather ElementAverageHighLow
Temperature22.8 °F32 °F (4:55 pm)10 °F (7:55 am)
Dewpoint4.8 °F21 °F (11:55 pm)-5.1 °F (5:55 am)
Humidity47.1 %75 % (11:55 pm)35 % (10:55 am)
Barometer30.12 in30.22 in (8:55 am)29.92 in (11:55 pm)
Wind Speed6.4 mph10.4 mph (2:55 pm)
Wind Gust18.4 mph (11:55 pm)
Weather ElementAverage
Visibility9.7 mi
Wind DirectionWSW (256.5 °)

Weather ElementTotal
Precipitation---
Heating Degree Days44 (Base 65)
Averaged from 23 records on March 14, 2013
WEATHER CONDITIONS BREAKOUT
WIND DIRECTION BREAKOUT
WEATHER BY HOUR - MARCH 14, 2013
[ °C ]   °F
Local TimeTemperatureDewpointHumidityBarometerVisibilityWind DirectionWind SpeedGust SpeedPrecipitationEventsConditions
1:55 AM19.9 °F-0.9 °F40 %30.15 in10.0 miNNW (330°)9.2 mphClear
2:55 AM19.0 °F-2.9 °F38 %30.17 in10.0 miNNW (340°)6.9 mphClear
3:55 AM17.1 °F-4.0 °F39 %30.17 in10.0 miNW (320°)6.9 mphClear
4:55 AM15.1 °F-4.0 °F43 %30.17 in10.0 miWNW (290°)6.9 mphClear
5:55 AM14.0 °F-5.1 °F43 %30.17 in10.0 miNNW (340°)6.9 mphClear
6:55 AM12.0 °F-5.1 °F46 %30.19 in10.0 miNW (320°)4.6 mphClear
7:55 AM10.0 °F-5.1 °F51 %30.21 in10.0 miNNW (330°)4.6 mphClear
8:55 AM10.0 °F-4.0 °F53 %30.22 in10.0 miSSW (210°)3.5 mphClear
9:55 AM16.0 °F-5.1 °F39 %30.22 in10.0 miCalmClear
10:55 AM21.0 °F-2.9 °F35 %30.22 in10.0 miNW (320°)5.8 mphClear
11:55 AM23.0 °F1.9 °F40 %30.19 in10.0 miWest (280°)8.1 mphClear
12:55 PM25.0 °F6.1 °F45 %30.19 in10.0 miNW (320°)9.2 mphClear
1:55 PM27.0 °F9.0 °F47 %30.17 in10.0 miWNW (300°)6.9 mphPartly Cloudy
2:55 PM28.0 °F9.0 °F45 %30.14 in10.0 miWNW (290°)10.4 mph16.1 mphClear
3:55 PM30.9 °F7.0 °F37 %30.12 in10.0 miNW (310°)10.4 mphPartly Cloudy
4:55 PM32.0 °F8.1 °F37 %30.09 in10.0 miNNW (340°)5.8 mph0.00 inMostly Cloudy
5:55 PM32.0 °F10.9 °F42 %30.07 in10.0 miCalm0.00 inClear
6:55 PM30.0 °F12.0 °F47 %30.05 in10.0 miSW (220°)4.6 mphPartly Cloudy
7:55 PM28.9 °F12.9 °F51 %30.03 in10.0 miSSW (200°)4.6 mphOvercast
8:55 PM28.9 °F15.1 °F56 %30.01 in10.0 miSW (220°)9.2 mphOvercast
9:55 PM28.0 °F18.0 °F66 %29.98 in10.0 miSSW (200°)5.8 mphOvercast
10:55 PM28.0 °F19.0 °F69 %29.96 in10.0 miSSW (200°)5.8 mphOvercast
11:55 PM28.0 °F21.0 °F75 %29.92 in3.0 miSW (220°)10.4 mph18.4 mph0.00 inSnowLight Snow
Hourly data recorded from KANJ, located miles away from Sault Ste. Marie, Michigan







STORIES FROM OUR PARTNERS